Voltar ao catálogo

FREGAT DEB

LostLEO
NORAD 46101·DEBRIS·🇷🇺 Russia

Lançado Jul 18, 2011 de Baikonur Cosmodrome

Loading…

Próximas Passagens (próximas 24 horas)

TLE

ObsoletoSource: Space-Track

Época: Jul 5, 2026, 03:39 UTC

1 46101U 11037JL  26186.15270968  .00045994  00000-0  49850-1 0  9993
2 46101  51.2098 231.2460 0439277  80.7890 284.2403 13.37654896131517

Acompanhe FREGAT DEB em tempo real com AllMySat

Download on the App Store